Location: La Pernelle
(49.6188°N, 1.2999°W)
Time: 11:07:13
(UTC+00:00)

Meteor 2-20 - Pass Details

Date: 24 October 2021
Orbit: 939 x 958 km, 82.5° (Epoch: 08 December)

Event Time Altitude Azimuth Distance (km) Brightness Sun altitude
Rises 18:27:41 0° 335° (NNW) 3,614 7.8 -15.3°
Reaches altitude 10° 18:31:49 10° 307° (NW) 2,663 7.6 -16.0°
Maximum altitude 18:34:09 12° 284° (WNW) 2,487 7.8 -16.4°
Drops below altitude 10° 18:36:29 10° 261° (W) 2,658 8.1 -16.7°
Sets 18:40:37 0° 234° (SW) 3,598 8.3 -17.4°
